Weather History for Highgate, VT

Change the Weather History Date:

Sunday, May 19, 2013

  Actual Average (KPBG) Record (KPBG)
Temperature  
Mean Temperature 61 °F 57 °F  
Max Temperature 74 °F 69 °F 91 °F (1962)
Min Temperature 49 °F 46 °F 29 °F (1987)
Degree Days  
Heating Degree Days 4    
Cooling Degree Days 0 0  
Month to date cooling degree days 0  
Year to date cooling degree days 0  
Growing Degree Days 11 (Base 50)    
Moisture  
Dew Point 47 °F    
Average Humidity 67    
Maximum Humidity 88    
Minimum Humidity 41    
Precipitation  
Precipitation 0.00 in - 0.99 in (1984)
Month to date precipitation  
Year to date precipitation  
Sea Level Pressure  
Sea Level Pressure 30.20 in    
Wind  
Wind Speed 5 mph (South)    
Max Wind Speed 13 mph    
Max Gust Speed 20 mph    
Visibility 10 miles    
Events Rain    
T = Trace of Precipitation, MM = Missing Value Source: NWS Daily Summary

Daily Weather History Graph

Daily Weather History Graph

Search for Another Location

Airport:

Trip Planner

Search our weather history database for the weather conditions in past years. The results will help you decide how hot, cold, wet, or windy it might be!

Date:

Astronomy

May. 19, 2013 Rise Set
Actual Time 5:19 AM EDT 8:19 PM EDT
Civil Twilight 4:44 AM EDT 8:54 PM EDT
Nautical Twilight 3:59 AM EDT 9:38 PM EDT
Astronomical Twilight 3:07 AM EDT 10:32 PM EDT
Moon 2:05 PM EDT (5/19) 1:57 AM EDT (5/19)
Length of Visible Light 16h 09m
Length of Day
15h 00m
Waxing Gibbous, 65% of the Moon is Illuminated
May 19
Waxing Gibbous
May 25
Full
May 31
Last Quarter
Jun 8
New
Jun 16
First Quarter

Hourly Weather History & Observations

Time (EDT) Temp. Dew Point Humidity Pressure Visibility Wind Dir Wind Speed Gust Speed Precip Events Conditions
12:15 AM 54.5 °F 42.1 °F 63% 30.22 in 10.0 mi ESE 8.1 mph - N/A   Clear
12:35 AM 54.5 °F 40.5 °F 59% 30.22 in 10.0 mi ESE 5.8 mph - N/A   Clear
12:55 AM 54.5 °F 40.3 °F 59% 30.22 in 10.0 mi ESE 6.9 mph - N/A   Scattered Clouds
1:35 AM 49.6 °F 38.8 °F 66% 30.22 in 10.0 mi Calm Calm - N/A   Clear
2:15 AM 49.3 °F 39.2 °F 68% 30.22 in 10.0 mi SE 3.5 mph - N/A   Scattered Clouds
2:35 AM 49.5 °F 38.5 °F 66% 30.22 in 10.0 mi Calm Calm - N/A   Clear
2:55 AM 49.3 °F 38.7 °F 67% 30.22 in 10.0 mi SSE 4.6 mph - N/A   Clear
3:15 AM 49.3 °F 39.2 °F 68% 30.23 in 10.0 mi Calm Calm - N/A   Clear
3:35 AM 49.3 °F 39.4 °F 69% 30.24 in 10.0 mi Calm Calm - N/A   Scattered Clouds
3:55 AM 49.3 °F 40.6 °F 72% 30.24 in 10.0 mi Calm Calm - N/A   Scattered Clouds
4:15 AM 49.3 °F 40.6 °F 72% 30.24 in 10.0 mi SE 3.5 mph - N/A   Scattered Clouds
4:35 AM 49.3 °F 41.2 °F 74% 30.24 in 10.0 mi SE 4.6 mph - N/A   Scattered Clouds
4:55 AM 49.3 °F 41.0 °F 73% 30.24 in 10.0 mi SE 4.6 mph - N/A   Clear
5:15 AM 49.3 °F 41.0 °F 73% 30.25 in 10.0 mi SE 4.6 mph - N/A   Clear
5:35 AM 49.3 °F 41.2 °F 74% 30.25 in 10.0 mi SE 3.5 mph - N/A   Scattered Clouds
5:55 AM 49.3 °F 41.0 °F 73% 30.25 in 10.0 mi SE 3.5 mph - N/A   Clear
6:15 AM 49.3 °F 40.1 °F 71% 30.25 in 10.0 mi SE 3.5 mph - N/A   Clear
6:35 AM 49.3 °F 40.1 °F 71% 30.25 in 10.0 mi SE 3.5 mph - N/A   Clear
6:55 AM 50.7 °F 41.0 °F 69% 30.26 in 10.0 mi SE 3.5 mph - N/A   Clear
7:15 AM 51.8 °F 41.9 °F 69% 30.26 in 10.0 mi SE 4.6 mph - N/A   Clear
7:35 AM 54.5 °F 41.5 °F 62% 30.26 in 10.0 mi SE 3.5 mph - N/A   Clear
7:55 AM 56.8 °F 43.7 °F 61% 30.26 in 10.0 mi ESE 3.5 mph - N/A   Clear
8:15 AM 56.8 °F 43.5 °F 61% 30.26 in 10.0 mi Calm Calm - N/A   Clear
8:35 AM 60.6 °F 45.1 °F 57% 30.26 in 10.0 mi SSW 4.6 mph - N/A   Clear
8:55 AM 62.6 °F 44.8 °F 52% 30.26 in 10.0 mi South 6.9 mph - N/A   Clear
9:15 AM 64.9 °F 45.9 °F 50% 30.26 in 10.0 mi South 5.8 mph - N/A   Clear
9:35 AM 67.1 °F 46.8 °F 48% 30.25 in 10.0 mi South 4.6 mph - N/A   Clear
9:55 AM 67.5 °F 46.8 °F 47% 30.25 in 10.0 mi SSW 4.6 mph - N/A   Clear
10:15 AM 67.1 °F 46.4 °F 47% 30.25 in 10.0 mi South 5.8 mph - N/A   Clear
10:35 AM 67.1 °F 46.9 °F 48% 30.25 in 10.0 mi SSW 4.6 mph - N/A   Clear
10:55 AM 67.1 °F 47.1 °F 49% 30.25 in 10.0 mi South 3.5 mph - N/A   Clear
11:15 AM 67.5 °F 47.1 °F 48% 30.25 in 10.0 mi SSW 6.9 mph - N/A   Clear
11:35 AM 69.4 °F 49.6 °F 49% 30.25 in 10.0 mi SSW 3.5 mph - N/A   Clear
11:55 AM 69.4 °F 50.0 °F 50% 30.24 in 10.0 mi SSW 5.8 mph - N/A   Clear
12:15 PM 69.4 °F 48.9 °F 48% 30.23 in 5.0 mi SSE 6.9 mph - N/A   Haze
12:55 PM 70.2 °F 47.5 °F 44% 30.22 in 10.0 mi South 3.5 mph - N/A   Clear
1:35 PM 73.4 °F 48.2 °F 41% 30.20 in 10.0 mi SSE 6.9 mph - N/A   Clear
1:55 PM 73.0 °F 48.9 °F 42% 30.20 in 10.0 mi WSW 5.8 mph 16.1 mph N/A   Scattered Clouds
2:15 PM 69.4 °F 49.8 °F 50% 30.19 in 10.0 mi SW 9.2 mph - N/A   Clear
2:55 PM 67.8 °F 52.2 °F 57% 30.19 in 7.0 mi SSW 5.8 mph - N/A   Scattered Clouds
3:15 PM 67.1 °F 52.2 °F 59% 30.19 in 10.0 mi SSW 9.2 mph - N/A   Mostly Cloudy
3:35 PM 67.1 °F 51.6 °F 57% 30.18 in 10.0 mi South 10.4 mph 18.4 mph N/A   Overcast
3:55 PM 67.1 °F 51.4 °F 57% 30.18 in 10.0 mi South 6.9 mph 16.1 mph N/A Rain Light Rain
4:15 PM 63.1 °F 51.6 °F 66% 30.18 in 10.0 mi SSW 9.2 mph 18.4 mph N/A Rain Rain
4:35 PM 61.0 °F 53.1 °F 75% 30.18 in 10.0 mi South 5.8 mph - N/A   Drizzle
4:55 PM 60.8 °F 53.1 °F 76% 30.17 in 10.0 mi South 8.1 mph 17.3 mph N/A Rain Light Rain
5:15 PM 60.8 °F 52.3 °F 74% 30.17 in 10.0 mi South 10.4 mph 17.3 mph N/A   Overcast
5:35 PM 59.9 °F 51.8 °F 75% 30.17 in 10.0 mi South 8.1 mph 17.3 mph N/A Rain Light Rain
5:55 PM 59.4 °F 52.9 °F 79% 30.17 in 10.0 mi SSW 6.9 mph - N/A Rain Light Rain
6:15 PM 59.4 °F 52.9 °F 79% 30.16 in 10.0 mi South 5.8 mph - N/A Rain Rain
6:35 PM 59.2 °F 54.0 °F 83% 30.16 in 7.0 mi South 6.9 mph - N/A Rain Rain
6:55 PM 57.9 °F 53.2 °F 84% 30.15 in 7.0 mi South 6.9 mph - N/A Rain Rain
7:15 PM 57.4 °F 53.1 °F 85% 30.15 in 10.0 mi SSE 8.1 mph - N/A Rain Light Rain
7:35 PM 56.8 °F 52.9 °F 87% 30.15 in 7.0 mi South 3.5 mph - N/A Rain Light Rain
7:55 PM 56.8 °F 53.2 °F 88% 30.13 in 7.0 mi South 9.2 mph - N/A Rain Rain
8:15 PM 56.8 °F 53.2 °F 88% 30.12 in 10.0 mi SSE 6.9 mph - N/A Rain Rain
8:35 PM 56.8 °F 52.9 °F 87% 30.12 in 10.0 mi South 9.2 mph - N/A Rain Light Rain
8:55 PM 57.2 °F 52.7 °F 85% 30.13 in 10.0 mi South 5.8 mph - N/A Rain Light Rain
9:15 PM 57.2 °F 52.9 °F 85% 30.12 in 10.0 mi SSE 6.9 mph - N/A Rain Light Rain
9:35 PM 56.8 °F 52.9 °F 87% 30.12 in 10.0 mi South 6.9 mph - N/A Rain Light Rain
9:55 PM 56.8 °F 52.9 °F 87% 30.10 in 10.0 mi South 8.1 mph - N/A   Overcast
10:35 PM 58.1 °F 53.4 °F 84% 30.09 in 10.0 mi South 12.7 mph 19.6 mph N/A   Overcast
10:55 PM 58.8 °F 54.0 °F 84% 30.09 in 10.0 mi South 10.4 mph 17.3 mph N/A   Overcast
11:15 PM 57.6 °F 52.9 °F 84% 30.08 in 10.0 mi South 9.2 mph 18.4 mph N/A Rain Rain
11:55 PM 57.4 °F 53.1 °F 85% 30.06 in 10.0 mi South 11.5 mph 19.6 mph N/A   Light Drizzle